TimeCEST,TemperatureF,Dew PointF,Humidity,Sea Level PressureIn,VisibilityMPH,Wind Direction,Wind SpeedMPH,Gust SpeedMPH,PrecipitationIn,Events,Conditions,WindDirDegrees,DateUTC
12:00 AM,64.4,62.6,94,29.95,6.2,WSW,15.0,-,N/A,,Mostly Cloudy,240,2013-07-29 22:00:00
12:30 AM,62.6,60.8,94,29.95,6.2,West,17.3,-,N/A,,Mostly Cloudy,260,2013-07-29 22:30:00
1:00 AM,62.6,60.8,94,29.95,6.2,WSW,15.0,-,N/A,,Mostly Cloudy,250,2013-07-29 23:00:00
1:30 AM,62.6,60.8,94,29.95,6.2,WSW,16.1,-,N/A,,Overcast,250,2013-07-29 23:30:00
1:54 AM,62.6,60.8,94,29.98,3.7,WNW,11.5,-,N/A,Rain,Light Rain,290,2013-07-29 23:54:00
2:00 AM,63,60,88,29.96,5,West,13.4,,,Rain,Light Rain,270,2013-07-30 00:00:00
2:00 AM,62.6,60.8,94,29.98,5.0,West,18.4,-,N/A,Rain,Light Rain,270,2013-07-30 00:00:00
2:30 AM,60.8,59.0,94,30.01,6.2,West,16.1,-,N/A,Rain,Light Rain,280,2013-07-30 00:30:00
3:00 AM,60.8,59.0,94,30.01,5.0,West,16.1,-,N/A,Rain,Light Rain,270,2013-07-30 01:00:00
3:30 AM,60.8,59.0,94,30.04,5.0,West,11.5,-,N/A,Rain,Light Rain,260,2013-07-30 01:30:00
4:00 AM,60.8,59.0,94,30.01,6.2,West,15.0,-,N/A,,Overcast,260,2013-07-30 02:00:00
4:30 AM,60.8,59.0,94,30.01,-9999.0,WSW,16.1,-,N/A,,Clear,250,2013-07-30 02:30:00
5:00 AM,60.8,57.2,88,30.04,-9999.0,WSW,13.8,-,N/A,,Clear,250,2013-07-30 03:00:00
5:30 AM,60.8,57.2,88,30.04,6.2,WSW,13.8,-,N/A,Rain,Light Rain,250,2013-07-30 03:30:00
6:00 AM,59.0,57.2,94,30.04,6.2,West,15.0,-,N/A,Rain,Light Rain,260,2013-07-30 04:00:00
6:30 AM,60.8,57.2,88,30.04,6.2,WSW,17.3,-,N/A,Rain,Light Rain,250,2013-07-30 04:30:00
7:00 AM,60.8,57.2,88,30.04,-9999.0,WSW,15.0,-,N/A,,Clear,250,2013-07-30 05:00:00
7:09 AM,60.8,57.2,88,30.06,6.2,WSW,13.8,-,N/A,Rain,Light Rain,250,2013-07-30 05:09:00
7:30 AM,60.8,59.0,94,30.06,6.2,WSW,12.7,-,N/A,Rain,Light Rain,240,2013-07-30 05:30:00
7:53 AM,60.8,59.0,94,30.06,-9999.0,WSW,17.3,-,N/A,,Clear,250,2013-07-30 05:53:00
8:00 AM,61,59,89,30.06,19,WSW,13.4,,,Rain,Light Rain,250,2013-07-30 06:00:00
8:00 AM,60.8,59.0,94,30.06,-9999.0,WSW,16.1,-,N/A,,Clear,250,2013-07-30 06:00:00
8:30 AM,62.6,59.0,88,30.06,-9999.0,WSW,16.1,-,N/A,,Clear,250,2013-07-30 06:30:00
9:00 AM,64.4,60.8,88,30.06,6.2,West,15.0,-,N/A,,Partly Cloudy,270,2013-07-30 07:00:00
9:30 AM,66.2,59.0,78,30.09,6.2,West,18.4,-,N/A,,Partly Cloudy,270,2013-07-30 07:30:00
10:00 AM,68.0,59.0,73,30.09,6.2,West,17.3,-,N/A,,Scattered Clouds,270,2013-07-30 08:00:00
10:30 AM,68.0,59.0,73,30.09,6.2,West,12.7,-,N/A,,Mostly Cloudy,280,2013-07-30 08:30:00
11:00 AM,68.0,57.2,68,30.09,6.2,WNW,10.4,-,N/A,,Mostly Cloudy,290,2013-07-30 09:00:00
11:30 AM,69.8,57.2,64,30.09,6.2,WNW,10.4,-,N/A,,Mostly Cloudy,300,2013-07-30 09:30:00
11:53 AM,68.0,59.0,73,30.09,6.2,NW,9.2,-,N/A,Rain,Light Rain Showers,310,2013-07-30 09:53:00
12:00 PM,66.2,59.0,78,30.09,6.2,NW,8.1,-,N/A,Rain,Light Rain Showers,320,2013-07-30 10:00:00
12:06 PM,66.2,57.2,73,30.09,6.2,NNW,6.9,-,N/A,,Scattered Clouds,340,2013-07-30 10:06:00
12:30 PM,69.8,59.0,68,30.09,6.2,North,4.6,-,N/A,,Scattered Clouds,350,2013-07-30 10:30:00
1:00 PM,69.8,59.0,68,30.09,6.2,North,9.2,-,N/A,,Scattered Clouds,350,2013-07-30 11:00:00
1:30 PM,69.8,59.0,68,30.09,6.2,NNE,5.8,-,N/A,,Scattered Clouds,20,2013-07-30 11:30:00
2:00 PM,76,53,35,30.03,25,West,8.9,,,,Partly Cloudy,280,2013-07-30 12:00:00
2:00 PM,75.2,53.6,47,30.06,6.2,West,12.7,-,N/A,,Partly Cloudy,270,2013-07-30 12:00:00
2:05 PM,73.4,55.4,53,30.09,6.2,West,13.8,26.5,N/A,,Scattered Clouds,270,2013-07-30 12:05:00
2:08 PM,71.6,55.4,57,30.09,6.2,West,27.6,-,N/A,,Scattered Clouds,270,2013-07-30 12:08:00
2:30 PM,69.8,55.4,60,30.09,6.2,WSW,19.6,-,N/A,,Partly Cloudy,250,2013-07-30 12:30:00
3:00 PM,71.6,55.4,57,30.09,-9999.0,SW,13.8,-,N/A,,Clear,230,2013-07-30 13:00:00
3:30 PM,75.2,57.2,53,30.06,6.2,SW,11.5,23.0,N/A,,Partly Cloudy,220,2013-07-30 13:30:00
3:49 PM,73.4,55.4,53,30.06,6.2,West,9.2,-,N/A,,Scattered Clouds,280,2013-07-30 13:49:00
4:00 PM,73.4,55.4,53,30.09,6.2,West,11.5,-,N/A,,Scattered Clouds,280,2013-07-30 14:00:00
4:30 PM,77.0,53.6,44,30.06,6.2,WSW,18.4,-,N/A,,Scattered Clouds,250,2013-07-30 14:30:00
5:00 PM,75.2,53.6,47,30.06,-9999.0,West,18.4,-,N/A,,Clear,260,2013-07-30 15:00:00
5:30 PM,75.2,53.6,47,30.06,-9999.0,West,15.0,-,N/A,,Clear,260,2013-07-30 15:30:00
6:00 PM,73.4,51.8,47,30.06,-9999.0,West,13.8,-,N/A,,Clear,280,2013-07-30 16:00:00
6:30 PM,71.6,51.8,50,30.06,-9999.0,WNW,12.7,-,N/A,,Clear,290,2013-07-30 16:30:00
7:00 PM,73.4,53.6,50,30.06,-9999.0,WSW,13.8,-,N/A,,Clear,250,2013-07-30 17:00:00
7:30 PM,69.8,51.8,53,30.06,-9999.0,WSW,9.2,-,N/A,,Clear,250,2013-07-30 17:30:00
8:00 PM,69,53,47,30.05,47,WSW,8.9,,,,Scattered Clouds,240,2013-07-30 18:00:00
8:00 PM,69.8,53.6,56,30.09,-9999.0,WSW,8.1,-,N/A,,Clear,240,2013-07-30 18:00:00
8:30 PM,68.0,53.6,60,30.09,-9999.0,WSW,9.2,-,N/A,,Clear,250,2013-07-30 18:30:00
9:00 PM,64.4,53.6,68,30.09,-9999.0,West,6.9,-,N/A,,Clear,260,2013-07-30 19:00:00
9:30 PM,62.6,53.6,72,30.09,-9999.0,WSW,10.4,-,N/A,,Clear,250,2013-07-30 19:30:00
10:00 PM,60.8,55.4,82,30.09,-9999.0,SW,9.2,-,N/A,,Clear,230,2013-07-30 20:00:00
10:30 PM,60.8,55.4,82,30.09,-9999.0,SW,6.9,-,N/A,,Clear,230,2013-07-30 20:30:00
11:00 PM,60.8,57.2,88,30.09,-9999.0,SW,8.1,-,N/A,,Clear,220,2013-07-30 21:00:00
11:30 PM,62.6,57.2,82,30.09,-9999.0,SW,6.9,-,N/A,,Clear,230,2013-07-30 21:30:00